TimeCST,TemperatureF,Dew PointF,Humidity,Sea Level PressureIn,VisibilityMPH,Wind Direction,Wind SpeedMPH,Gust SpeedMPH,PrecipitationIn,Events,Conditions,WindDirDegrees,DateUTC
12:20 AM,39.2,33.8,81,29.97,10.0,NNW,10.4,-,N/A,,Overcast,340,2012-11-07 06:20:00
12:53 AM,39.0,33.1,79,30.00,10.0,NNW,6.9,-,N/A,,Overcast,330,2012-11-07 06:53:00
1:49 AM,39.2,33.8,81,30.00,10.0,NNW,6.9,-,N/A,,Overcast,340,2012-11-07 07:49:00
1:53 AM,39.0,33.1,79,30.02,10.0,NNW,5.8,-,N/A,,Overcast,340,2012-11-07 07:53:00
2:53 AM,39.0,33.1,79,30.04,10.0,NNW,4.6,-,N/A,,Overcast,330,2012-11-07 08:53:00
3:53 AM,39.0,33.1,79,30.05,10.0,NNW,8.1,-,N/A,,Overcast,330,2012-11-07 09:53:00
4:53 AM,39.0,33.1,79,30.07,10.0,NNW,6.9,-,N/A,,Overcast,340,2012-11-07 10:53:00
5:53 AM,39.0,33.1,79,30.08,10.0,NNW,4.6,-,N/A,,Overcast,330,2012-11-07 11:53:00
6:53 AM,39.0,33.1,79,30.09,10.0,NNW,3.5,-,N/A,,Overcast,340,2012-11-07 12:53:00
7:53 AM,39.9,34.0,79,30.11,10.0,Calm,Calm,-,N/A,,Overcast,0,2012-11-07 13:53:00
8:53 AM,41.0,34.0,76,30.12,10.0,Calm,Calm,-,N/A,,Overcast,0,2012-11-07 14:53:00
9:02 AM,41.0,33.8,76,30.10,10.0,WNW,3.5,-,N/A,,Overcast,290,2012-11-07 15:02:00
9:23 AM,41.0,33.8,76,30.10,10.0,WNW,3.5,-,N/A,,Overcast,290,2012-11-07 15:23:00
9:53 AM,42.1,35.1,76,30.12,10.0,Calm,Calm,-,N/A,,Overcast,0,2012-11-07 15:53:00
10:53 AM,43.0,34.0,71,30.12,10.0,Calm,Calm,-,N/A,,Overcast,0,2012-11-07 16:53:00
11:13 AM,42.8,33.8,70,30.10,10.0,Calm,Calm,-,N/A,,Overcast,0,2012-11-07 17:13:00
11:30 AM,44.6,33.8,66,30.10,10.0,SW,5.8,-,N/A,,Overcast,230,2012-11-07 17:30:00
11:53 AM,45.0,34.0,65,30.11,10.0,Calm,Calm,-,N/A,,Overcast,0,2012-11-07 17:53:00
12:53 PM,46.9,33.1,59,30.09,10.0,Calm,Calm,-,N/A,,Mostly Cloudy,0,2012-11-07 18:53:00
1:53 PM,46.0,32.0,58,30.09,10.0,SSW,5.8,-,N/A,,Overcast,200,2012-11-07 19:53:00
2:53 PM,46.0,32.0,58,30.09,10.0,SSW,5.8,-,N/A,,Overcast,200,2012-11-07 20:53:00
3:53 PM,46.0,32.0,58,30.08,10.0,South,4.6,-,N/A,,Overcast,180,2012-11-07 21:53:00
4:53 PM,44.1,32.0,63,30.08,10.0,South,4.6,-,N/A,,Overcast,180,2012-11-07 22:53:00
5:53 PM,41.0,32.0,70,30.08,10.0,SSE,4.6,-,N/A,,Partly Cloudy,150,2012-11-07 23:53:00
6:53 PM,39.0,32.0,76,30.09,10.0,SE,4.6,-,N/A,,Clear,140,2012-11-08 00:53:00
7:53 PM,37.9,32.0,79,30.08,10.0,SSE,4.6,-,N/A,,Clear,160,2012-11-08 01:53:00
8:53 PM,37.0,30.9,79,30.07,10.0,SE,6.9,-,N/A,,Clear,140,2012-11-08 02:53:00
9:53 PM,37.0,32.0,82,30.07,10.0,SSE,6.9,-,N/A,,Clear,150,2012-11-08 03:53:00
10:53 PM,37.0,32.0,82,30.07,10.0,SSE,6.9,-,N/A,,Clear,160,2012-11-08 04:53:00
11:53 PM,37.9,30.9,76,30.07,10.0,South,6.9,-,N/A,,Clear,180,2012-11-08 05:53:00